W0DXV Weather Reports


Display with metric or nautical units.
time (UTC)temp
F
wind
direction
speed
MPH
gust
MPH
rain 1hr
in
rain 24hr
in
rain mn
in
humidity
%
barometer
mb
20260906113520 71 220 1.0 1.0 0.00 0.01 0.01 99 1009.1
20260906113016 71 256 0.0 0.0 0.00 0.01 0.01 99 1009.3
20260906112511 71 187 0.0 1.0 0.00 0.01 0.01 99 1009.1
20260906112007 71 256 0.0 0.0 0.00 0.01 0.01 99 1009.2
20260906111501 71 256 1.0 2.0 0.00 0.01 0.01 99 1009.0
20260906110956 71 258 3.0 5.0 0.00 0.01 0.01 99 1009.1
20260906110451 71 253 0.0 0.0 0.00 0.01 0.01 99 1009.1
20260906105949 70 261 0.0 1.0 0.00 0.01 0.01 99 1008.9
20260906105446 70 236 1.0 1.0 0.00 0.01 0.01 99 1009.1
20260906104942 70 260 1.0 1.0 0.00 0.01 0.01 99 1008.7
20260906104440 70 250 1.0 2.0 0.00 0.01 0.01 99 1008.9
20260906103939 70 259 1.0 2.0 0.00 0.01 0.01 99 1008.8
20260906103437 70 267 2.0 2.0 0.00 0.01 0.01 99 1008.8
20260906102932 69 260 1.0 1.0 0.00 0.01 0.01 99 1008.9
20260906102427 69 248 0.0 1.0 0.00 0.01 0.01 99 1008.9
20260906101921 69 209 0.0 0.0 0.00 0.01 0.01 99 1008.5
20260906101411 68 209 0.0 0.0 0.00 0.01 0.01 99 1008.5
20260906100907 68 209 0.0 0.0 0.00 0.01 0.01 99 1008.4
20260906100406 68 209 0.0 0.0 0.00 0.01 0.01 99 1008.2
20260906095901 68 209 0.0 0.0 0.00 0.01 0.01 99 1008.1
20260906095356 69 209 0.0 0.0 0.00 0.01 0.01 99 1008.1
20260906094856 69 209 0.0 0.0 0.00 0.01 0.01 99 1008.0
20260906094350 69 209 0.0 0.0 0.00 0.01 0.01 99 1007.8
20260906093842 69 208 0.0 0.0 0.00 0.01 0.01 99 1008.1
20260906093337 69 226 0.0 1.0 0.00 0.01 0.01 99 1008.0
20260906092831 69 228 0.0 0.0 0.00 0.01 0.01 99 1008.0
20260906092326 69 228 1.0 1.0 0.00 0.01 0.01 99 1008.1
20260906091822 69 228 1.0 1.0 0.00 0.01 0.01 99 1008.3
20260906091318 69 228 1.0 1.0 0.00 0.01 0.01 99 1008.0
20260906090814 69 228 0.0 0.0 0.00 0.01 0.01 99 1008.1
20260906090312 69 228 0.0 0.0 0.00 0.01 0.01 99 1007.9
20260906085807 69 228 0.0 0.0 0.00 0.01 0.01 99 1008.0
20260906085307 69 228 0.0 0.0 0.00 0.01 0.01 99 1007.8
20260906084800 69 228 0.0 0.0 0.00 0.01 0.01 99 1007.7
20260906084255 69 228 0.0 0.0 0.00 0.01 0.01 99 1007.9
20260906083749 69 228 0.0 0.0 0.00 0.01 0.01 99 1007.7
20260906083245 69 228 0.0 1.0 0.00 0.01 0.01 99 1008.0
20260906082739 70 228 0.0 0.0 0.05 0.01 0.01 99 1007.8
20260906082235 70 227 1.0 1.0 0.05 0.01 0.01 99 1007.8
20260906081731 70 236 0.0 0.0 0.00 0.00 0.00 99 1007.9
20260906081225 69 238 0.0 0.0 0.00 0.00 0.00 99 1007.7
20260906080722 69 238 0.0 0.0 0.00 0.00 0.00 99 1007.7
20260906080218 70 239 0.0 0.0 0.00 0.00 0.00 99 1007.4
20260906075712 70 238 0.0 0.0 0.00 0.00 0.00 99 1007.1
20260906075207 70 238 0.0 0.0 0.00 0.00 0.00 99 1007.2
20260906074702 70 238 0.0 0.0 0.00 0.00 0.00 99 1007.2
20260906074201 70 238 0.0 1.0 0.00 0.00 0.00 99 1007.2
20260906073656 70 238 0.0 0.0 0.00 0.00 0.00 99 1007.1
20260906073151 70 241 0.0 0.0 0.00 0.00 0.00 99 1007.1
20260906072647 71 240 0.0 0.0 0.00 0.00 0.00 99 1007.2
20260906072142 71 241 0.0 0.0 0.00 0.00 0.00 99 1007.2
20260906071638 71 232 0.0 0.0 0.00 0.00 0.00 99 1007.3
20260906071133 71 241 0.0 0.0 0.00 0.00 0.00 99 1007.3
20260906070629 71 241 0.0 0.0 0.00 0.00 0.00 99 1007.2
20260906070125 71 241 0.0 0.0 0.00 0.00 0.00 99 1007.2
20260906065624 71 241 0.0 0.0 0.00 0.00 0.00 99 1007.7
20260906065120 70 203 1.0 1.0 0.00 0.00 0.00 99 1007.7
20260906064615 70 203 0.0 0.0 0.00 0.00 0.00 99 1007.7
20260906064110 70 203 0.0 1.0 0.00 0.00 0.00 99 1007.8
20260906063605 71 203 0.0 0.0 0.00 0.00 0.00 99 1008.0
20260906063101 70 203 0.0 0.0 0.00 0.00 0.00 99 1008.1
20260906062557 70 203 0.0 0.0 0.00 0.00 0.00 99 1008.1
20260906062055 70 203 0.0 0.0 0.00 0.00 0.00 99 1008.0
20260906061552 70 202 0.0 0.0 0.00 0.00 0.00 99 1008.1
20260906061051 71 203 0.0 0.0 0.00 0.00 0.00 99 1008.0
20260906060548 71 202 0.0 0.0 0.00 0.00 0.00 99 1008.0
20260906060045 71 203 0.0 0.0 0.00 0.00 0.00 99 1008.0
20260906055541 71 203 0.0 0.0 0.00 0.00 0.00 99 1008.1
20260906055035 71 202 0.0 0.0 0.00 0.00 0.00 99 1008.2
20260906054530 71 203 0.0 0.0 0.00 0.00 0.00 99 1008.3
20260906054025 71 203 0.0 0.0 0.00 0.00 0.00 99 1008.1
20260906053521 71 203 0.0 0.0 0.00 0.00 0.00 99 1008.2
20260906053017 71 203 0.0 0.0 0.00 0.00 0.00 99 1008.1
20260906052512 71 202 0.0 0.0 0.00 0.00 0.00 99 1008.3
20260906052009 71 202 0.0 0.0 0.00 0.00 0.00 99 1008.1
20260906051505 71 202 0.0 0.0 0.00 0.00 0.00 99 1008.2
20260906051000 71 202 0.0 0.0 0.00 0.00 0.00 99 1008.3
20260906050500 71 202 0.0 0.0 0.00 0.00 0.00 99 1008.6
20260906045954 71 202 0.0 0.0 0.00 0.01 0.01 99 1008.4
20260906045453 71 202 0.0 0.0 0.00 0.01 0.01 99 1008.3
20260906044949 71 202 0.0 0.0 0.00 0.01 0.01 99 1008.4
20260906044444 72 202 0.0 0.0 0.00 0.01 0.01 99 1008.4
20260906043940 72 202 0.0 0.0 0.00 0.01 0.01 99 1008.3
20260906043435 72 202 0.0 0.0 0.00 0.01 0.01 99 1008.4
20260906042931 71 203 0.0 0.0 0.00 0.01 0.01 99 1008.5
20260906042430 71 203 0.0 0.0 0.00 0.01 0.01 99 1008.5
20260906041925 72 203 0.0 0.0 0.00 0.01 0.01 99 1008.7
20260906041421 72 203 0.0 0.0 0.00 0.01 0.01 99 1008.6
20260906040920 72 203 0.0 0.0 0.00 0.01 0.01 99 1008.7
20260906040416 72 203 0.0 0.0 0.00 0.01 0.01 99 1008.8
20260906035911 71 203 0.0 0.0 0.00 0.01 0.01 99 1008.8
20260906035406 71 203 0.0 0.0 0.00 0.01 0.01 99 1008.6
20260906034902 71 203 0.0 0.0 0.00 0.01 0.01 99 1008.8
20260906034356 71 203 0.0 0.0 0.00 0.01 0.01 99 1008.6
20260906033852 71 203 0.0 0.0 0.00 0.01 0.01 99 1008.5
20260906033351 71 203 0.0 0.0 0.00 0.01 0.01 99 1008.6
20260906032848 71 203 0.0 0.0 0.00 0.01 0.01 99 1008.5
20260906032343 72 203 0.0 0.0 0.00 0.01 0.01 99 1008.7
20260906031838 72 203 0.0 0.0 0.00 0.01 0.01 99 1008.7
20260906031334 71 203 0.0 0.0 0.00 0.01 0.01 99 1008.5
20260906030833 71 203 0.0 0.0 0.00 0.01 0.01 99 1008.6
20260906030329 71 203 0.0 0.0 0.00 0.01 0.01 99 1008.7
20260906025823 71 203 0.0 0.0 0.00 0.01 0.01 99 1008.8
20260906025317 72 203 0.0 0.0 0.00 0.01 0.01 99 1008.6
20260906024816 72 203 0.0 0.0 0.00 0.01 0.01 99 1008.6
20260906024315 72 203 0.0 0.0 0.00 0.01 0.01 99 1008.5
20260906023811 72 203 0.0 0.0 0.00 0.01 0.01 99 1008.3
20260906023307 72 203 0.0 0.0 0.00 0.01 0.01 99 1008.3
20260906022802 72 203 0.0 0.0 0.00 0.01 0.01 98 1008.3
20260906022257 72 203 0.0 0.0 0.00 0.01 0.01 98 1008.3
20260906021753 72 203 0.0 0.0 0.00 0.01 0.01 98 1008.4
20260906021252 72 203 0.0 0.0 0.00 0.01 0.01 98 1008.2
20260906020747 72 203 0.0 0.0 0.00 0.01 0.01 98 1008.5
20260906020247 72 203 0.0 0.0 0.00 0.01 0.01 98 1008.4
20260906015741 73 203 0.0 0.0 0.00 0.01 0.01 98 1008.3
20260906015239 73 203 0.0 1.0 0.00 0.01 0.01 98 1008.4
20260906014734 73 202 0.0 0.0 0.00 0.01 0.01 98 1008.7
20260906014225 73 202 0.0 0.0 0.00 0.01 0.01 98 1008.5
20260906013721 73 202 0.0 0.0 0.00 0.01 0.01 98 1008.3
20260906013221 73 200 1.0 1.0 0.00 0.01 0.01 98 1008.2
20260906012715 73 192 1.0 1.0 0.00 0.01 0.01 98 1008.2
20260906012210 73 196 0.0 0.0 0.00 0.01 0.01 97 1008.2
20260906011706 73 196 0.0 0.0 0.00 0.01 0.01 97 1008.1
20260906011206 73 196 0.0 0.0 0.00 0.01 0.01 97 1008.0
20260906010701 73 196 0.0 1.0 0.00 0.01 0.01 97 1007.7
20260906010158 73 196 0.0 0.0 0.00 0.01 0.01 96 1007.8
20260906005657 73 196 0.0 0.0 0.00 0.01 0.01 96 1007.6
20260906005156 74 196 0.0 0.0 0.00 0.01 0.01 96 1007.8
20260906004655 74 196 0.0 0.0 0.00 0.01 0.01 96 1008.0
20260906004150 74 196 0.0 0.0 0.00 0.01 0.01 96 1007.8
20260906003640 74 196 0.0 1.0 0.00 0.01 0.01 96 1007.8
20260906003136 74 196 0.0 0.0 0.00 0.01 0.01 95 1007.6
20260906002630 75 196 0.0 0.0 0.00 0.01 0.01 95 1007.7
20260906002125 75 196 0.0 0.0 0.00 0.01 0.01 95 1007.6
20260906001621 75 196 0.0 0.0 0.00 0.01 0.01 95 1007.8
20260906001120 75 196 0.0 0.0 0.00 0.01 0.01 95 1007.3
20260906000616 75 196 0.0 0.0 0.00 0.01 0.01 94 1007.3
20260906000112 75 196 0.0 0.0 0.00 0.01 0.01 93 1007.3
20260905235610 76 196 0.0 0.0 0.00 0.01 0.01 93 1007.2
20260905235106 76 196 0.0 0.0 0.00 0.01 0.01 92 1007.2
20260905234601 77 195 0.0 0.0 0.00 0.01 0.01 91 1007.2
20260905234056 77 228 0.0 0.0 0.00 0.01 0.01 91 1007.2
20260905233556 77 220 0.0 0.0 0.00 0.01 0.01 90 1007.1
20260905233051 77 220 0.0 0.0 0.00 0.01 0.01 89 1007.0
20260905232546 77 220 0.0 0.0 0.00 0.01 0.01 89 1007.3
20260905232042 78 229 0.0 0.0 0.00 0.01 0.01 88 1007.3
20260905231537 78 231 0.0 1.0 0.00 0.01 0.01 87 1007.2
20260905231033 79 246 1.0 1.0 0.00 0.01 0.01 85 1007.2
20260905230532 79 253 0.0 0.0 0.00 0.01 0.01 85 1007.1
20260905230031 79 253 0.0 0.0 0.00 0.01 0.01 84 1007.2
20260905225525 79 254 0.0 0.0 0.00 0.01 0.01 83 1007.3
20260905225021 79 249 0.0 0.0 0.00 0.01 0.01 83 1007.1
20260905224515 79 210 0.0 0.0 0.00 0.01 0.01 83 1007.1
20260905224015 80 208 0.0 1.0 0.00 0.01 0.01 81 1007.1
20260905223512 80 253 0.0 0.0 0.00 0.01 0.01 79 1007.1
20260905223007 79 254 0.0 0.0 0.00 0.01 0.01 80 1007.1
20260905222502 79 253 0.0 0.0 0.00 0.01 0.01 81 1007.0
20260905221957 79 291 0.0 1.0 0.00 0.01 0.01 81 1007.0
20260905221454 79 239 0.0 0.0 0.00 0.01 0.01 80 1007.1
20260905220950 79 241 0.0 1.0 0.00 0.01 0.01 80 1006.9
20260905220446 80 243 0.0 1.0 0.00 0.01 0.01 77 1006.9
20260905215944 80 241 0.0 1.0 0.00 0.01 0.01 78 1007.0
20260905215440 80 243 0.0 0.0 0.00 0.01 0.01 77 1007.0
20260905214937 80 243 0.0 0.0 0.00 0.01 0.01 78 1007.1
20260905214431 80 246 0.0 0.0 0.00 0.01 0.01 78 1007.3
20260905213926 79 294 2.0 2.0 0.00 0.01 0.01 78 1007.4
20260905213422 79 241 1.0 1.0 0.00 0.01 0.01 80 1007.4
20260905212917 79 237 0.0 1.0 0.00 0.01 0.01 78 1007.6
20260905212412 79 205 0.0 0.0 0.00 0.01 0.01 80 1007.8
20260905211911 78 262 1.0 1.0 0.00 0.01 0.01 80 1007.9
20260905211407 78 265 1.0 1.0 0.00 0.01 0.01 82 1007.8
20260905210903 78 206 0.0 1.0 0.00 0.01 0.01 83 1007.9
20260905210357 78 201 0.0 1.0 0.00 0.01 0.01 83 1007.9
20260905205856 78 237 1.0 1.0 0.00 0.01 0.01 84 1008.0
20260905205351 78 236 0.0 1.0 0.00 0.01 0.01 84 1008.0
20260905204850 78 237 0.0 0.0 0.00 0.01 0.01 84 1007.7
20260905204347 78 243 1.0 1.0 0.00 0.01 0.01 85 1007.6
20260905203845 77 226 0.0 1.0 0.00 0.01 0.01 85 1007.1
20260905203341 77 225 0.0 0.0 0.00 0.01 0.01 85 1007.4
20260905202837 77 225 0.0 0.0 0.00 0.01 0.01 83 1007.3
20260905202331 78 252 1.0 1.0 0.00 0.01 0.01 82 1007.3
20260905201827 77 161 1.0 1.0 0.00 0.01 0.01 85 1007.4
20260905201322 76 227 0.0 0.0 0.00 0.01 0.01 85 1007.9
20260905200816 76 211 0.0 1.0 0.00 0.01 0.01 86 1007.8
20260905200313 75 243 0.0 1.0 0.00 0.01 0.01 87 1008.4
20260905195810 75 250 0.0 1.0 0.00 0.01 0.01 90 1008.2
20260905195307 74 258 0.0 0.0 0.00 0.01 0.01 90 1008.0
20260905194802 73 209 0.0 1.0 0.00 0.01 0.01 91 1008.1
20260905194300 73 214 1.0 1.0 0.00 0.01 0.01 91 1007.9
20260905193754 73 232 0.0 1.0 0.00 0.01 0.01 90 1008.4
20260905193249 72 251 0.0 0.0 0.00 0.01 0.01 91 1008.3
20260905192739 72 253 0.0 1.0 0.00 0.01 0.01 92 1008.3
20260905192236 72 229 0.0 0.0 0.00 0.01 0.01 91 1008.3
20260905191735 72 256 0.0 0.0 0.00 0.01 0.01 91 1008.4
20260905191233 72 240 0.0 0.0 0.00 0.01 0.01 91 1008.1
20260905190732 72 259 1.0 1.0 0.00 0.01 0.01 91 1007.9
20260905190231 73 241 1.0 1.0 0.00 0.01 0.01 91 1007.8
20260905185730 73 205 1.0 1.0 0.00 0.01 0.01 91 1007.0
20260905185225 73 249 0.0 0.0 0.00 0.01 0.01 92 1007.1
20260905184719 73 226 0.0 1.0 0.00 0.01 0.01 90 1007.6
20260905184218 74 246 0.0 0.0 0.07 0.01 0.01 86 1008.0
20260905183718 76 223 0.0 1.0 0.07 0.01 0.01 80 1007.9
20260905183214 78 322 3.0 5.0 0.00 0.00 0.00 71 1008.2
20260905182712 79 225 3.0 5.0 0.00 0.00 0.00 66 1009.3
20260905182207 80 280 4.0 6.0 0.00 0.00 0.00 65 1009.5
20260905181703 82 177 5.0 6.0 0.00 0.00 0.00 66 1009.5
20260905181201 89 191 6.0 8.0 0.00 0.00 0.00 57 1009.3
20260905180656 95 223 2.0 2.0 0.00 0.00 0.00 57 1008.3
20260905180151 95 160 2.0 2.0 0.00 0.00 0.00 57 1007.9
20260905175650 94 258 1.0 1.0 0.00 0.00 0.00 59 1008.2
20260905175146 95 96 2.0 2.0 0.00 0.00 0.00 61 1008.3
20260905174641 97 241 0.0 0.0 0.00 0.00 0.00 56 1008.1
20260905174137 98 229 0.0 1.0 0.00 0.00 0.00 54 1008.1
20260905173633 96 221 1.0 1.0 0.00 0.00 0.00 54 1007.9
20260905173128 96 158 1.0 2.0 0.00 0.00 0.00 57 1008.2
20260905172627 95 294 1.0 1.0 0.00 0.00 0.00 54 1008.5
20260905172122 95 228 1.0 1.0 0.00 0.00 0.00 58 1008.5
20260905171618 96 155 2.0 3.0 0.00 0.00 0.00 53 1008.8
20260905171114 96 277 3.0 3.0 0.00 0.00 0.00 53 1008.9
20260905170610 96 220 2.0 2.0 0.00 0.00 0.00 52 1008.9
20260905170105 97 222 1.0 1.0 0.00 0.00 0.00 54 1008.8
20260905165559 96 248 1.0 1.0 0.00 0.00 0.00 54 1009.0
20260905165054 95 261 1.0 1.0 0.00 0.00 0.00 53 1008.9
20260905164549 94 197 2.0 2.0 0.00 0.00 0.00 55 1009.0
20260905164044 95 249 0.0 0.0 0.00 0.00 0.00 61 1008.8
20260905163540 97 50 1.0 1.0 0.00 0.00 0.00 53 1009.0
20260905163036 96 275 1.0 2.0 0.00 0.00 0.00 55 1009.2
20260905162532 95 228 0.0 1.0 0.00 0.00 0.00 57 1009.2
20260905162027 95 250 0.0 1.0 0.00 0.00 0.00 60 1009.2
20260905161526 95 161 1.0 2.0 0.00 0.00 0.00 57 1009.5
20260905161024 95 228 0.0 1.0 0.00 0.00 0.00 58 1009.5
20260905160517 94 240 0.0 1.0 0.00 0.00 0.00 59 1009.5
20260905160012 94 257 2.0 2.0 0.00 0.00 0.00 60 1009.5
20260905155512 94 282 0.0 1.0 0.00 0.00 0.00 63 1009.6
20260905155010 95 202 1.0 2.0 0.00 0.00 0.00 59 1009.6
20260905154506 93 221 1.0 1.0 0.00 0.00 0.00 59 1009.9
20260905154001 93 229 0.0 1.0 0.00 0.00 0.00 61 1009.7
20260905153457 93 234 1.0 2.0 0.00 0.00 0.00 61 1009.4
20260905152951 92 235 1.0 1.0 0.00 0.00 0.00 64 1009.6
20260905152451 92 236 1.0 1.0 0.00 0.00 0.00 64 1009.8
20260905151946 91 288 1.0 1.0 0.00 0.00 0.00 62 1009.8
20260905151441 91 288 1.0 1.0 0.00 0.00 0.00 65 1009.8
20260905150936 91 302 1.0 1.0 0.00 0.00 0.00 65 1009.8
20260905150437 89 228 1.0 1.0 0.00 0.00 0.00 66 1009.8
20260905145933 89 348 1.0 1.0 0.00 0.00 0.00 68 1009.9
20260905145427 88 220 1.0 1.0 0.00 0.00 0.00 69 1009.9
20260905144927 89 227 1.0 1.0 0.00 0.00 0.00 69 1010.0
20260905144422 87 233 0.0 0.0 0.00 0.00 0.00 72 1010.0
20260905143921 88 238 0.0 1.0 0.00 0.00 0.00 70 1010.0
20260905143415 88 223 0.0 0.0 0.00 0.00 0.00 71 1010.0
20260905142914 87 258 0.0 0.0 0.00 0.00 0.00 70 1010.1
20260905142413 86 249 0.0 1.0 0.00 0.00 0.00 73 1009.8
20260905141910 85 232 1.0 1.0 0.00 0.00 0.00 75 1009.9
20260905141404 85 178 0.0 0.0 0.00 0.00 0.00 75 1009.9
20260905140900 85 186 0.0 0.0 0.00 0.00 0.00 75 1009.7
20260905140356 83 186 0.0 1.0 0.00 0.00 0.00 79 1010.0
20260905135854 83 185 0.0 1.0 0.00 0.00 0.00 81 1010.0
20260905135350 82 188 0.0 0.0 0.00 0.00 0.00 80 1009.9
20260905134846 81 174 0.0 0.0 0.00 0.00 0.00 83 1009.9
20260905134344 81 174 0.0 0.0 0.00 0.00 0.00 83 1010.1
20260905133839 81 174 0.0 0.0 0.00 0.00 0.00 82 1010.2
20260905133334 80 174 0.0 0.0 0.00 0.00 0.00 83 1010.2
20260905132833 79 174 0.0 0.0 0.00 0.00 0.00 85 1010.1
20260905132329 79 174 0.0 0.0 0.00 0.00 0.00 86 1010.1
20260905131829 79 174 0.0 0.0 0.00 0.00 0.00 86 1010.0
20260905131324 78 174 0.0 0.0 0.00 0.00 0.00 86 1010.1
20260905130820 78 174 0.0 0.0 0.00 0.00 0.00 87 1010.1
20260905130318 79 174 0.0 0.0 0.00 0.00 0.00 87 1010.5
20260905125814 79 174 0.0 0.0 0.00 0.00 0.00 86 1010.3
20260905125309 78 174 0.0 0.0 0.00 0.00 0.00 88 1010.1
20260905124805 79 174 0.0 0.0 0.00 0.00 0.00 87 1010.2
20260905124301 79 174 0.0 0.0 0.00 0.00 0.00 86 1010.3
20260905123755 78 174 0.0 0.0 0.00 0.00 0.00 88 1010.0
20260905123252 78 174 0.0 0.0 0.00 0.00 0.00 89 1010.3
20260905122746 78 174 0.0 0.0 0.00 0.00 0.00 87 1010.2
20260905122240 78 174 0.0 0.0 0.00 0.00 0.00 87 1010.0
20260905121736 78 174 0.0 0.0 0.00 0.00 0.00 88 1010.2
20260905121232 76 173 0.0 0.0 0.00 0.00 0.00 91 1010.1
20260905120731 76 173 0.0 0.0 0.00 0.00 0.00 92 1010.1
20260905120230 75 174 0.0 0.0 0.00 0.00 0.00 96 1010.3
20260905115725 74 173 0.0 0.0 0.00 0.00 0.00 98 1010.0
20260905115219 73 173 0.0 0.0 0.00 0.00 0.00 99 1010.1
20260905114714 72 173 0.0 0.0 0.00 0.00 0.00 99 1010.1
20260905114212 72 173 0.0 0.0 0.00 0.00 0.00 99 1010.0